Temperature
11 10 9 10 10 10 11 11 11 10 9 9 8 8 7 6 6 5 4 4 3 2 2 2 2 2 2 3 3 3 3 3 4 4 4 4 5 5 5 5 6 6 6 7
10 9 9 10 10 10 10 10 10 9 9 9 8 7 7 6 5 5 4 3 2 2 1 1 1 1 2 2 2 2 2 3 3 3 3 3 3 4 4 4 5 5 6 6
9 8 9 10 9 9 10 9 9 8 8 8 7 7 6 5 5 4 4 3 2 2 1 1 1 1 1 1 1 1 2 2 2 2 3 3 3 3 4 4 4 4 5 5
8 9 9 9 8 8 8 8 8 8 6 6 7 5 6 5 4 4 4 3 2 1 1 0 -0 -0 0 0 1 1 1 1 1 2 2 2 2 2 2 3 3 3 4 4
8 8 8 8 8 8 7 7 7 7 7 6 7 5 5 5 4 3 3 2 2 1 -0 -0 -1 -1 -1 -0 -0 0 0 0 1 1 1 1 1 1 2 2 2 3 3 3
7 7 7 7 7 7 7 7 7 7 6 5 6 5 5 4 4 3 3 2 1 0 -1 -1 -1 -1 -1 -1 -1 -1 -0 -0 0 0 0 0 0 1 1 1 1 2 2 2
7 7 7 7 6 6 6 5 5 5 5 5 6 6 4 4 4 3 2 2 1 -0 -1 -1 -1 -1 -1 -1 -1 -1 -1 -1 -1 -0 -0 -0 -0 -0 -0 0 0 1 1 2
7 6 6 6 6 5 6 6 5 5 5 5 5 4 3 3 3 2 2 1 0 -1 -1 -2 -2 -2 -2 -2 -2 -2 -2 -1 -1 -1 -1 -1 -1 -1 -1 -1 -0 -0 0 1
7 6 5 6 6 5 6 5 5 4 4 4 4 4 2 2 1 1 1 0 -0 -1 -2 -2 -2 -2 -2 -2 -2 -2 -2 -2 -2 -2 -2 -2 -2 -2 -1 -1 -1 -1 -1 -0
6 5 5 5 5 5 5 5 4 4 3 4 5 5 3 0 0 0 0 -0 -1 -1 -2 -2 -2 -3 -3 -3 -3 -3 -3 -3 -3 -3 -3 -3 -2 -2 -2 -2 -2 -2 -1 -1
6 5 4 4 4 4 4 4 4 4 4 3 3 3 2 1 0 -0 -0 -1 -1 -2 -2 -3 -3 -3 -3 -3 -3 -3 -3 -3 -3 -3 -3 -3 -3 -3 -3 -3 -2 -2 -2 -2
5 4 4 4 4 4 4 4 3 2 2 3 2 2 1 1 1 0 -0 -1 -1 -2 -3 -3 -3 -3 -4 -4 -4 -4 -4 -4 -4 -4 -4 -4 -4 -4 -4 -3 -3 -3 -3 -2
4 3 3 4 3 3 3 3 3 2 2 1 1 1 0 0 0 -0 -1 -1 -2 -2 -3 -3 -4 -4 -4 -4 -4 -4 -5 -4 -4 -4 -4 -4 -4 -4 -4 -4 -4 -4 -3 -3
4 3 3 3 3 3 2 2 2 1 -0 0 1 1 -0 -1 -1 -1 -1 -2 -2 -3 -3 -4 -4 -4 -5 -5 -5 -5 -5 -5 -5 -5 -5 -5 -5 -5 -5 -4 -4 -4 -4 -4
3 2 3 3 3 3 2 2 2 1 0 0 1 1 0 -1 -1 -1 -1 -2 -3 -3 -4 -4 -5 -5 -5 -5 -5 -5 -5 -5 -5 -5 -5 -5 -5 -5 -5 -5 -5 -5 -5 -4
2 1 1 1 2 2 1 1 1 1 1 0 0 -0 -1 -1 -1 -2 -2 -3 -3 -4 -4 -5 -5 -5 -6 -6 -6 -6 -6 -6 -6 -6 -6 -6 -6 -6 -6 -6 -6 -5 -5 -5
1 0 0 1 1 1 -0 -0 0 -0 -1 -1 -1 -2 -2 -2 -2 -2 -3 -3 -4 -4 -5 -5 -6 -6 -6 -6 -7 -6 -6 -6 -6 -6 -6 -6 -6 -6 -6 -6 -6 -6 -6 -6
0 0 -0 -0 0 -1 0 -0 -1 -1 -2 -2 -2 -3 -2 -2 -3 -3 -3 -4 -4 -5 -6 -6 -6 -6 -7 -7 -7 -7 -7 -7 -7 -7 -7 -7 -7 -7 -7 -7 -6 -6 -6 -6
-0 -0 -1 -1 -1 -0 -1 -1 -2 -2 -3 -3 -3 -3 -3 -3 -4 -4 -4 -4 -5 -6 -6 -6 -7 -7 -7 -7 -7 -7 -7 -7 -7 -7 -7 -7 -7 -7 -7 -7 -7 -7 -7 -7
-2 -1 -2 -1 -1 -1 -1 -2 -2 -3 -4 -3 -3 -3 -4 -4 -6 -5 -4 -5 -6 -6 -6 -7 -7 -7 -7 -7 -8 -8 -8 -8 -8 -8 -8 -8 -8 -8 -8 -8 -8 -7 -7 -7
-3 -2 -3 -2 -2 -1 -3 -3 -2 -3 -3 -3 -3 -3 -4 -5 -5 -5 -5 -6 -6 -7 -7 -7 -7 -8 -8 -8 -8 -8 -8 -8 -8 -8 -8 -8 -8 -8 -8 -8 -8 -8 -8 -8
-3 -3 -3 -2 -2 -2 -4 -4 -4 -4 -3 -3 -3 -4 -4 -5 -5 -6 -6 -7 -7 -7 -7 -8 -8 -8 -8 -9 -9 -9 -9 -9 -9 -9 -8 -8 -8 -9 -9 -9 -8 -8 -9 -9
-2 -3 -3 -3 -3 -3 -3 -3 -3 -3 -4 -4 -4 -4 -5 -6 -6 -7 -7 -7 -8 -8 -8 -8 -8 -8 -9 -9 -9 -9 -9 -10 -9 -9 -9 -9 -9 -9 -9 -9 -9 -9 -9 -9
-3 -3 -3 -4 -4 -3 -3 -3 -3 -4 -4 -4 -5 -5 -6 -6 -7 -7 -8 -8 -8 -8 -9 -9 -9 -9 -9 -9 -10 -10 -10 -10 -10 -10 -10 -10 -10 -9 -9 -10 -10 -10 -10 -10
-3 -5 -4 -5 -4 -4 -3 -4 -4 -4 -5 -5 -6 -6 -7 -7 -7 -8 -8 -8 -9 -9 -9 -9 -9 -10 -10 -10 -10 -10 -10 -10 -10 -10 -10 -10 -10 -10 -10 -10 -10 -10 -10 -10
-4 -5 -5 -4 -4 -5 -4 -4 -5 -5 -6 -6 -7 -7 -7 -8 -8 -8 -9 -9 -9 -9 -9 -10 -10 -10 -10 -10 -10 -10 -10 -11 -11 -11 -11 -11 -11 -11 -11 -11 -10 -10 -10 -10
Wind_Speed
1 0 1 1 2 4 5 5 4 2 1 2 5 5 5 5 3 3 3 2 3 4 4 5 5 6 6 7 8 8 8 8 7 6 5 4 4 4 5 7 9 9 9 9
1 0 2 3 3 4 5 5 4 2 1 3 5 7 5 6 5 3 3 2 2 3 4 5 5 6 6 7 8 8 7 7 7 5 4 3 4 3 4 6 8 9 9 8
1 2 2 2 2 3 4 3 4 3 4 5 5 6 6 5 5 3 3 2 2 2 3 4 5 6 6 6 7 7 7 7 7 7 5 5 4 4 4 5 5 8 9 9
2 1 2 1 2 3 3 3 4 3 4 4 4 4 4 7 6 5 3 2 2 2 2 3 4 5 6 6 6 7 7 7 7 7 6 6 5 5 6 5 5 8 9 9
1 1 1 1 2 3 2 4 4 5 5 5 5 5 3 6 5 6 4 3 2 3 3 3 3 4 5 5 5 6 7 7 7 7 6 6 5 5 5 6 6 6 6 8
1 2 2 2 2 1 2 3 4 4 3 5 6 6 3 3 3 3 4 3 2 3 2 3 4 4 4 5 5 5 6 6 7 7 7 6 7 7 7 7 7 6 5 6
3 3 1 1 1 0 2 1 1 2 3 5 2 3 3 3 4 4 4 3 2 2 2 2 3 4 4 5 5 5 6 6 7 7 6 7 7 6 6 7 6 7 5 5
2 3 4 1 1 1 2 1 1 3 4 3 2 5 2 5 6 5 4 3 2 2 2 2 2 3 4 4 5 5 6 6 6 6 7 6 6 5 5 6 6 7 5 5
2 1 2 2 2 2 1 1 1 2 4 4 5 3 2 3 3 3 3 2 2 2 2 2 2 3 3 4 5 5 5 6 6 6 6 6 6 6 6 6 6 6 6 8
3 1 2 2 1 1 2 1 1 2 3 5 6 4 3 3 2 1 1 0 1 1 2 3 3 3 3 3 4 4 5 5 6 6 6 7 6 6 6 6 7 7 7 8
2 1 2 3 5 4 3 2 3 3 3 3 5 3 2 3 3 2 1 0 1 2 2 3 3 3 3 3 3 4 5 5 6 6 6 6 6 6 6 6 7 7 7 8
1 1 3 2 2 2 1 3 4 3 4 4 4 4 3 4 3 2 1 1 1 2 2 2 3 3 3 4 4 4 5 6 5 6 6 6 7 7 7 7 7 8 8 8
0 1 2 1 0 1 2 3 3 2 2 4 4 5 2 3 2 1 0 1 1 2 2 3 3 4 4 4 5 5 5 6 5 5 6 7 7 7 7 8 8 8 8 8
1 3 5 5 2 1 4 5 5 5 4 6 8 8 3 1 1 2 2 2 2 2 3 3 4 4 5 5 5 6 6 6 6 6 6 6 7 7 8 8 7 8 8 8
1 4 5 7 5 4 6 7 7 9 9 8 8 8 6 2 2 2 1 2 3 3 4 4 4 5 5 6 6 6 7 7 7 6 6 7 7 8 7 7 7 8 8 9
2 3 3 5 6 5 8 9 9 9 9 10 11 10 3 2 1 1 1 2 3 4 5 5 6 6 6 7 7 7 8 8 7 6 6 7 7 7 7 8 8 8 9 9
3 2 2 4 1 4 8 7 8 5 5 5 8 6 1 2 3 3 3 3 4 4 5 6 6 6 7 6 7 7 8 8 7 7 7 7 8 8 8 9 9 8 8 8
2 2 2 3 3 6 4 2 2 3 4 4 4 2 1 2 3 3 2 1 3 4 5 6 6 7 7 6 7 7 7 7 7 7 8 8 8 9 9 8 8 8 7 7
1 3 2 2 4 7 2 2 2 2 4 3 4 3 2 2 4 3 2 2 2 4 5 5 6 6 7 7 7 7 8 8 8 8 8 8 8 9 9 9 8 7 7 8
1 1 3 3 4 6 3 2 2 2 4 1 2 2 1 2 2 3 2 4 4 5 5 5 6 6 6 7 7 7 8 8 9 9 9 9 9 9 9 9 8 7 7 8
3 3 5 6 6 6 1 2 3 2 4 1 2 1 1 2 3 3 3 4 4 5 5 5 6 6 6 7 7 7 8 9 9 10 10 9 9 8 9 8 8 7 8 8
6 5 6 5 6 6 3 4 4 4 1 1 1 1 1 2 3 3 4 4 5 5 6 6 6 7 7 6 6 8 9 9 9 10 10 10 9 8 8 8 8 8 7 8
5 5 4 6 6 1 5 4 2 1 1 0 0 0 0 2 3 4 4 5 5 5 6 5 5 7 7 7 6 8 9 9 9 10 10 9 10 8 8 8 8 7 6 6
4 2 2 3 4 2 3 2 1 1 1 0 0 1 0 2 3 4 5 5 5 5 5 5 6 7 8 7 7 7 9 9 9 10 10 9 9 8 8 7 7 7 6 7
3 4 3 4 3 2 2 2 1 1 0 0 1 1 1 2 3 4 4 5 5 6 5 5 6 7 8 8 8 9 9 9 9 10 10 10 9 8 8 7 7 7 6 8
3 4 4 5 3 3 2 1 1 1 1 0 1 1 2 2 3 3 4 4 4 5 5 6 7 8 8 8 8 8 8 8 9 10 9 8 8 7 7 7 8 11 11 14
Wind_Direction
153 351 24 338 299 313 320 302 304 342 59 252 244 236 184 156 145 123 113 98 71 58 52 45 34 24 16 12 9 9 8 1 360 356 351 346 342 336 343 350 351 349 343 337
171 14 355 355 342 310 299 295 303 325 359 278 267 256 193 159 166 158 138 110 82 56 41 34 32 24 17 10 5 7 6 360 358 354 343 329 326 324 336 343 345 346 341 336
103 47 351 315 332 313 290 301 314 315 314 253 269 269 191 163 154 154 145 124 103 68 38 23 21 20 15 11 2 0 0 357 357 353 344 341 342 333 340 339 333 339 336 331
72 23 337 305 336 317 290 357 317 298 288 265 199 276 203 169 173 185 174 150 123 86 48 28 14 10 10 9 2 358 357 357 355 353 349 348 346 337 328 324 320 327 330 330
96 56 328 304 342 325 332 329 290 263 262 285 232 244 244 160 193 199 179 140 107 88 62 39 18 10 6 9 3 356 357 356 355 354 350 345 337 328 322 324 322 322 323 327
88 48 10 359 348 339 315 290 261 246 244 261 229 211 252 186 187 164 153 130 101 77 53 33 24 16 3 3 1 356 356 353 353 352 350 346 338 336 333 331 328 328 320 318
187 152 114 1 319 195 287 308 309 267 227 244 197 209 228 96 72 97 120 115 89 79 55 18 6 1 356 352 350 349 353 350 347 346 345 342 337 333 330 329 327 326 323 318
222 208 155 151 347 254 242 276 209 251 264 281 254 232 175 92 73 72 90 108 92 48 37 7 350 348 344 344 345 344 345 341 339 339 336 335 335 327 324 325 322 319 316 312
294 186 94 79 2 340 265 225 334 312 296 283 255 199 136 90 84 85 95 87 50 22 359 349 341 341 336 337 338 336 337 333 332 330 329 329 331 328 325 322 317 312 309 311
335 293 157 124 205 285 319 338 172 210 267 272 271 244 214 185 207 182 147 100 351 347 346 343 334 334 331 331 332 335 331 326 323 324 324 325 322 320 317 316 315 311 310 310
325 256 181 180 210 200 181 211 229 247 245 255 281 273 80 140 157 184 196 186 298 318 327 331 328 328 328 334 338 336 329 324 321 321 319 318 316 316 317 315 314 311 308 307
333 287 253 209 101 24 218 213 188 208 249 234 259 266 78 85 114 142 192 265 294 312 319 326 328 328 328 329 332 330 330 325 320 317 315 315 315 317 316 315 314 312 308 308
193 224 283 242 272 244 250 236 230 248 279 247 245 256 119 84 76 76 342 308 315 321 325 328 328 327 326 328 328 327 328 326 320 314 313 312 313 315 315 313 313 313 310 309
328 246 224 240 269 201 233 222 210 204 223 249 240 259 261 275 303 312 319 314 319 319 316 322 323 322 326 328 326 326 325 324 320 312 309 309 309 310 309 309 312 312 312 307
254 257 263 276 282 265 256 247 224 218 224 238 260 272 278 265 273 280 290 304 317 320 320 321 324 324 326 327 326 327 323 322 319 308 306 305 307 306 308 311 312 311 310 306
233 270 306 281 253 257 265 253 243 240 243 252 267 277 293 345 346 313 306 317 315 313 321 328 329 327 325 325 328 328 325 322 320 312 305 305 306 306 308 308 308 308 307 304
203 218 262 273 305 313 266 239 222 221 224 230 248 258 3 337 314 303 297 301 307 318 323 325 325 322 321 324 326 323 320 319 320 316 314 313 310 310 309 309 310 307 304 304
209 205 234 280 312 253 242 83 135 202 247 224 231 267 315 300 314 311 298 310 323 323 322 323 324 323 322 325 326 323 321 319 317 314 312 313 315 314 313 308 306 303 303 303
256 193 225 247 264 268 246 157 138 188 273 232 228 255 293 360 347 320 13 17 332 323 322 320 322 320 321 323 326 325 322 322 320 317 316 317 317 314 313 308 305 303 303 301
314 206 212 227 245 256 233 107 90 92 282 253 182 232 280 32 310 282 349 358 341 335 331 327 326 322 321 323 327 327 322 323 321 318 316 316 315 311 308 305 301 300 300 299
171 198 216 233 244 261 200 147 126 177 255 113 136 192 203 217 239 287 334 334 330 328 328 329 325 322 321 324 328 323 320 319 317 317 316 315 312 307 303 303 304 303 301 302
182 189 200 203 227 249 150 140 184 214 128 114 126 157 230 271 301 323 326 323 324 324 324 327 325 321 322 324 326 320 319 318 319 318 316 315 314 311 311 309 309 308 305 303
194 193 192 201 216 195 163 178 186 124 150 162 115 10 201 289 298 309 311 313 315 318 319 322 321 319 322 326 328 320 319 321 321 319 315 314 315 312 310 309 309 309 307 305
195 175 216 253 255 215 182 185 154 136 195 288 36 354 307 278 296 304 308 312 315 316 317 322 322 320 319 323 325 320 320 323 323 320 317 318 318 314 312 309 306 305 305 302
182 167 213 247 266 304 232 207 205 169 111 22 358 341 289 287 296 300 305 310 313 317 321 322 319 315 314 321 322 322 324 325 323 319 318 319 318 316 315 313 307 304 295 298
182 179 195 227 206 195 228 142 110 143 223 232 260 294 309 289 287 301 301 304 308 312 316 317 316 314 314 317 317 318 321 322 320 319 319 317 316 315 314 313 313 313 310 310
Height
1521 1524 1527 1526 1525 1525 1523 1523 1524 1526 1527 1529 1530 1531 1533 1535 1537 1538 1540 1541 1542 1542 1541 1540 1539 1537 1536 1534 1533 1531 1530 1529 1528 1526 1525 1524 1523 1523 1523 1523 1523 1523 1523 1523
1523 1527 1527 1525 1525 1524 1524 1525 1526 1528 1528 1529 1529 1529 1529 1532 1535 1537 1539 1540 1540 1540 1540 1539 1538 1536 1535 1533 1531 1530 1529 1527 1526 1525 1524 1523 1522 1520 1521 1520 1520 1520 1520 1520
1525 1530 1527 1526 1526 1527 1525 1528 1529 1530 1530 1528 1530 1529 1528 1530 1533 1536 1537 1539 1539 1539 1539 1538 1537 1535 1534 1532 1531 1529 1528 1526 1525 1524 1522 1521 1520 1518 1518 1517 1516 1516 1516 1516
1527 1528 1527 1527 1528 1529 1529 1528 1529 1530 1534 1532 1530 1537 1526 1528 1531 1533 1535 1537 1537 1538 1538 1537 1535 1534 1532 1531 1530 1528 1526 1525 1523 1522 1520 1519 1517 1516 1515 1514 1513 1512 1512 1512
1529 1529 1529 1530 1530 1530 1531 1529 1529 1529 1531 1533 1528 1534 1528 1526 1529 1531 1532 1534 1536 1536 1536 1535 1534 1533 1532 1530 1528 1527 1525 1523 1522 1520 1519 1517 1515 1514 1512 1511 1510 1509 1508 1508
1529 1530 1530 1531 1531 1530 1531 1530 1529 1529 1533 1539 1525 1531 1527 1527 1526 1527 1530 1532 1534 1535 1535 1534 1533 1532 1530 1528 1527 1525 1523 1521 1520 1518 1516 1515 1513 1511 1509 1508 1506 1505 1504 1504
1529 1530 1531 1532 1532 1532 1532 1535 1538 1538 1538 1532 1521 1525 1528 1524 1524 1525 1528 1531 1532 1533 1533 1532 1531 1529 1528 1526 1525 1523 1521 1519 1517 1516 1513 1512 1510 1508 1507 1505 1503 1502 1501 1500
1529 1532 1531 1532 1532 1534 1533 1534 1542 1543 1535 1528 1525 1527 1527 1525 1525 1526 1528 1530 1531 1532 1531 1531 1529 1528 1526 1524 1522 1521 1519 1517 1515 1513 1510 1509 1507 1506 1504 1502 1500 1498 1497 1496
1528 1531 1532 1532 1532 1533 1533 1535 1535 1540 1537 1538 1527 1522 1527 1526 1527 1528 1528 1529 1530 1530 1530 1529 1528 1526 1524 1522 1521 1519 1517 1515 1512 1510 1508 1506 1504 1502 1500 1498 1497 1495 1494 1492
1529 1533 1531 1533 1533 1534 1534 1534 1539 1541 1542 1536 1523 1518 1525 1528 1528 1527 1528 1528 1529 1529 1528 1527 1526 1524 1522 1520 1518 1516 1514 1512 1510 1507 1505 1503 1501 1499 1497 1495 1493 1491 1490 1489
1530 1534 1534 1534 1534 1533 1536 1536 1536 1537 1537 1540 1535 1528 1523 1523 1525 1526 1527 1527 1528 1527 1526 1525 1524 1522 1520 1518 1516 1514 1511 1509 1506 1504 1502 1500 1498 1496 1493 1491 1489 1487 1485 1484
1531 1533 1534 1530 1530 1530 1531 1532 1535 1542 1539 1535 1538 1534 1523 1523 1523 1525 1526 1526 1526 1526 1525 1523 1522 1520 1518 1515 1513 1511 1508 1506 1503 1501 1499 1496 1494 1492 1489 1487 1485 1483 1481 1479
1532 1535 1537 1533 1536 1535 1533 1531 1532 1535 1538 1538 1538 1532 1524 1523 1524 1524 1525 1525 1524 1524 1523 1521 1519 1517 1514 1512 1510 1508 1505 1502 1500 1497 1495 1492 1490 1488 1485 1483 1481 1479 1477 1475
1532 1534 1536 1533 1528 1530 1532 1531 1532 1536 1541 1537 1529 1525 1525 1524 1524 1524 1523 1523 1523 1522 1520 1518 1516 1514 1511 1509 1507 1504 1501 1499 1496 1493 1491 1488 1486 1484 1481 1479 1477 1474 1472 1470
1532 1533 1529 1527 1526 1527 1527 1528 1529 1531 1531 1532 1524 1522 1520 1522 1522 1522 1522 1521 1521 1519 1518 1516 1514 1511 1509 1506 1504 1501 1498 1495 1492 1490 1487 1485 1482 1480 1477 1475 1472 1471 1469 1466
1531 1533 1531 1530 1524 1525 1526 1524 1524 1525 1525 1524 1523 1521 1519 1520 1520 1520 1520 1519 1518 1517 1516 1514 1512 1509 1506 1504 1500 1497 1494 1491 1488 1485 1483 1481 1478 1476 1473 1471 1468 1466 1464 1461
1531 1533 1534 1531 1525 1526 1525 1519 1520 1520 1520 1521 1523 1521 1518 1519 1519 1519 1518 1517 1516 1515 1513 1511 1509 1507 1504 1501 1497 1494 1491 1488 1485 1482 1479 1477 1474 1471 1469 1466 1464 1462 1459 1457
1530 1532 1533 1532 1530 1534 1518 1515 1515 1517 1518 1518 1518 1518 1518 1518 1518 1517 1517 1516 1514 1513 1511 1509 1506 1503 1501 1498 1494 1491 1488 1484 1481 1478 1475 1473 1470 1467 1464 1462 1459 1457 1455 1452
1529 1531 1533 1533 1531 1520 1517 1516 1516 1519 1518 1515 1516 1516 1517 1517 1516 1515 1515 1514 1513 1511 1509 1507 1504 1501 1498 1494 1491 1487 1484 1481 1478 1474 1471 1468 1466 1463 1460 1457 1454 1452 1450 1448
1529 1530 1535 1532 1532 1524 1517 1517 1515 1518 1521 1514 1514 1515 1515 1516 1518 1515 1513 1512 1510 1508 1506 1504 1501 1498 1494 1491 1488 1484 1481 1478 1474 1471 1468 1465 1462 1459 1456 1453 1451 1448 1446 1443
1531 1532 1533 1532 1528 1519 1516 1515 1516 1523 1518 1513 1512 1513 1514 1515 1515 1514 1511 1510 1508 1506 1503 1501 1498 1495 1491 1488 1485 1481 1478 1474 1471 1467 1464 1461 1459 1456 1452 1449 1447 1444 1442 1439
1524 1527 1528 1526 1526 1521 1515 1515 1517 1515 1512 1511 1512 1512 1512 1512 1512 1511 1509 1507 1505 1503 1501 1498 1495 1491 1488 1485 1482 1478 1475 1472 1468 1464 1461 1457 1454 1451 1448 1445 1442 1440 1438 1435
1517 1518 1518 1518 1516 1511 1510 1510 1510 1511 1511 1510 1510 1510 1510 1510 1509 1508 1506 1505 1503 1501 1498 1495 1492 1489 1486 1483 1479 1476 1472 1469 1465 1461 1457 1454 1450 1447 1444 1441 1439 1436 1434 1432
1513 1512 1513 1513 1509 1508 1508 1508 1509 1509 1509 1509 1509 1509 1508 1507 1506 1505 1504 1502 1500 1498 1495 1492 1489 1486 1483 1480 1477 1474 1470 1466 1462 1458 1454 1450 1447 1443 1441 1438 1436 1433 1431 1429
1508 1510 1511 1510 1507 1507 1506 1506 1506 1507 1506 1506 1506 1506 1505 1505 1504 1503 1501 1499 1497 1495 1492 1490 1486 1483 1480 1477 1473 1470 1467 1463 1458 1455 1451 1447 1444 1440 1437 1435 1433 1430 1428 1427
1505 1507 1509 1506 1504 1504 1504 1504 1504 1504 1504 1503 1503 1503 1502 1502 1501 1499 1498 1496 1494 1492 1489 1486 1484 1480 1477 1474 1470 1467 1464 1460 1455 1451 1448 1444 1441 1438 1435 1431 1429 1427 1425 1423